TimeAKDT,TemperatureF,Dew PointF,Humidity,Sea Level PressureIn,VisibilityMPH,Wind Direction,Wind SpeedMPH,Gust SpeedMPH,PrecipitationIn,Events,Conditions,WindDirDegrees,DateUTC
12:58 AM,61.0,54.0,78,29.63,8.0,ENE,12.7,-,N/A,,Overcast,60,2014-08-14 08:58:00
1:58 AM,57.9,53.1,84,29.63,8.0,ENE,12.7,-,N/A,,Clear,70,2014-08-14 09:58:00
2:58 AM,57.9,53.1,84,29.64,8.0,ENE,8.1,-,N/A,,Mostly Cloudy,60,2014-08-14 10:58:00
3:58 AM,59.0,52.0,78,29.64,8.0,East,15.0,-,N/A,,Clear,80,2014-08-14 11:58:00
4:58 AM,57.9,52.0,81,29.64,8.0,ENE,15.0,-,N/A,,Clear,70,2014-08-14 12:58:00
5:58 AM,57.0,52.0,83,29.65,6.0,ENE,12.7,-,N/A,,Haze,60,2014-08-14 13:58:00
6:58 AM,57.9,53.1,84,29.65,6.0,ENE,13.8,-,N/A,,Haze,60,2014-08-14 14:58:00
7:58 AM,57.9,53.1,84,29.66,6.0,ENE,9.2,-,N/A,,Haze,60,2014-08-14 15:58:00
9:58 AM,59.0,55.0,87,29.66,8.0,ENE,12.7,-,0.00,Rain,Light Rain,70,2014-08-14 17:58:00
10:58 AM,62.1,55.0,78,29.66,6.0,ENE,16.1,-,0.00,,Haze,70,2014-08-14 18:58:00
11:58 AM,64.0,54.0,70,29.66,7.0,NE,13.8,-,N/A,,Clear,50,2014-08-14 19:58:00
12:58 PM,64.9,54.0,68,29.65,6.0,NE,13.8,-,N/A,,Haze,50,2014-08-14 20:58:00
1:58 PM,66.9,52.0,59,29.64,6.0,East,16.1,-,N/A,,Haze,80,2014-08-14 21:58:00
2:58 PM,66.9,53.1,61,29.63,6.0,East,15.0,23.0,N/A,,Haze,90,2014-08-14 22:58:00
3:58 PM,68.0,55.0,63,29.63,6.0,East,11.5,-,N/A,,Haze,100,2014-08-14 23:58:00
4:58 PM,68.0,54.0,61,29.62,5.0,East,10.4,-,N/A,,Haze,80,2014-08-15 00:58:00
5:32 PM,60.8,57.2,88,29.63,2.5,SE,15.0,27.6,0.06,Rain,Rain,140,2014-08-15 01:32:00
5:41 PM,60.8,57.2,88,29.62,6.0,SE,17.3,23.0,0.06,Rain,Light Rain,130,2014-08-15 01:41:00
5:58 PM,60.1,57.9,93,29.63,6.0,SE,13.8,-,0.07,Rain,Light Rain,130,2014-08-15 01:58:00
6:58 PM,64.0,57.9,80,29.62,6.0,East,9.2,19.6,0.03,,Haze,80,2014-08-15 02:58:00
7:33 PM,64.4,57.2,77,29.61,7.0,NNE,9.2,-,N/A,,Overcast,30,2014-08-15 03:33:00
7:50 PM,64.4,57.2,77,29.61,7.0,North,8.1,-,N/A,,Overcast,10,2014-08-15 03:50:00
7:58 PM,64.9,57.9,78,29.62,6.0,Variable,6.9,-,N/A,,Haze,0,2014-08-15 03:58:00
8:58 PM,64.0,57.9,80,29.61,6.0,East,13.8,20.7,N/A,,Haze,80,2014-08-15 04:58:00
9:58 PM,62.1,57.0,84,29.61,7.0,NNE,6.9,-,N/A,,Partly Cloudy,20,2014-08-15 05:58:00
10:58 PM,59.0,55.9,90,29.61,6.0,NE,6.9,-,N/A,,Mostly Cloudy,50,2014-08-15 06:58:00
11:58 PM,57.0,55.0,93,29.61,6.0,ENE,10.4,-,N/A,,Clear,60,2014-08-15 07:58:00